Time,TemperatureF,DewpointF,PressureIn,WindDirection,WindDirectionDegrees,WindSpeedMPH,WindSpeedGustMPH,Humidity,HourlyPrecipIn,Conditions,Clouds,dailyrainin,SoftwareType,DateUTC
2013-01-22 00:00:00,30.0,15.8,29.93,East,90,0.0,0.0,55,0.00,,---,0.00,VWS V12.08,2013-01-22 05:00:00,
2013-01-22 00:16:00,30.0,15.8,29.92,East,90,0.0,0.0,55,0.00,,---,5.20,VWS V12.08,2013-01-22 05:16:00,
2013-01-22 00:20:00,29.8,15.6,29.92,East,90,0.0,0.0,55,0.00,,---,5.20,VWS V12.08,2013-01-22 05:20:00,
2013-01-22 00:33:00,29.8,16.0,29.92,East,90,0.0,0.0,56,0.00,,---,5.20,VWS V12.08,2013-01-22 05:33:00,
2013-01-22 00:48:00,29.6,15.8,29.92,East,90,0.0,0.0,56,0.00,,---,5.20,VWS V12.08,2013-01-22 05:48:00,
2013-01-22 01:01:00,29.1,15.4,29.93,East,90,0.0,0.0,56,0.00,,---,5.20,VWS V12.08,2013-01-22 06:01:00,
2013-01-22 01:18:00,28.9,15.2,29.92,East,90,0.0,0.0,56,0.00,,---,5.20,VWS V12.08,2013-01-22 06:18:00,
2013-01-22 01:20:00,28.9,15.2,29.92,East,90,0.0,0.0,56,0.00,,---,5.20,VWS V12.08,2013-01-22 06:20:00,
2013-01-22 01:31:00,28.5,15.2,29.92,East,90,0.0,0.0,57,0.00,,---,5.20,VWS V12.08,2013-01-22 06:31:00,
2013-01-22 01:48:00,28.5,15.2,29.93,East,90,0.0,0.0,57,0.00,,---,5.20,VWS V12.08,2013-01-22 06:48:00,
2013-01-22 02:01:00,28.2,14.9,29.92,East,90,0.0,0.0,57,0.00,,---,5.20,VWS V12.08,2013-01-22 07:01:00,
2013-01-22 02:18:00,28.2,14.5,29.93,East,90,0.0,0.0,56,0.00,,---,5.20,VWS V12.08,2013-01-22 07:18:00,
2013-01-22 02:20:00,28.2,14.5,29.93,East,90,0.0,0.0,56,0.00,,---,5.20,VWS V12.08,2013-01-22 07:20:00,
2013-01-22 02:31:00,28.0,14.3,29.93,East,90,0.0,0.0,56,0.00,,---,5.20,VWS V12.08,2013-01-22 07:31:00,
2013-01-22 02:48:00,27.6,14.0,29.93,East,90,0.0,0.0,56,0.00,,---,5.20,VWS V12.08,2013-01-22 07:48:00,
2013-01-22 03:08:00,27.6,14.0,29.93,East,90,0.0,0.0,56,0.00,,---,5.20,VWS V12.08,2013-01-22 08:08:00,
2013-01-22 03:20:00,27.6,14.4,29.93,East,90,0.0,0.0,57,0.00,,---,5.20,VWS V12.08,2013-01-22 08:20:00,
2013-01-22 03:31:00,27.5,14.3,29.93,East,90,0.0,0.0,57,0.00,,---,5.20,VWS V12.08,2013-01-22 08:31:00,
2013-01-22 03:48:00,27.3,14.1,29.94,East,90,0.0,0.0,57,0.00,,---,5.20,VWS V12.08,2013-01-22 08:48:00,
2013-01-22 04:03:00,27.1,13.9,29.94,East,90,0.0,0.0,57,0.00,,---,5.20,VWS V12.08,2013-01-22 09:03:00,
2013-01-22 04:16:00,26.7,13.5,29.94,East,90,0.0,0.0,57,0.00,,---,5.20,VWS V12.08,2013-01-22 09:16:00,
2013-01-22 04:20:00,26.7,13.5,29.94,East,90,0.0,0.0,57,0.00,,---,5.20,VWS V12.08,2013-01-22 09:20:00,
2013-01-22 04:33:00,26.4,13.2,29.93,East,90,0.0,0.0,57,0.00,,---,5.20,VWS V12.08,2013-01-22 09:33:00,
2013-01-22 04:46:00,26.2,13.1,29.94,East,90,0.0,0.0,57,0.00,,---,5.20,VWS V12.08,2013-01-22 09:46:00,
2013-01-22 05:08:00,25.8,13.1,29.94,East,90,0.0,0.0,58,0.00,,---,5.20,VWS V12.08,2013-01-22 10:08:00,
2013-01-22 05:26:00,25.8,13.1,29.94,East,90,0.0,0.0,58,0.00,,---,5.20,VWS V12.08,2013-01-22 10:26:00,
2013-01-22 05:31:00,25.7,13.0,29.95,East,90,0.0,0.0,58,0.00,,---,5.20,VWS V12.08,2013-01-22 10:31:00,
2013-01-22 05:48:00,25.5,12.4,29.95,East,90,0.0,0.0,57,0.00,,---,5.20,VWS V12.08,2013-01-22 10:48:00,
2013-01-22 06:08:00,25.1,12.0,29.96,East,90,0.0,0.0,57,0.00,,---,5.20,VWS V12.08,2013-01-22 11:08:00,
2013-01-22 06:26:00,24.6,11.6,29.96,East,90,0.0,0.0,57,0.00,,---,5.20,VWS V12.08,2013-01-22 11:26:00,
2013-01-22 06:31:00,24.6,11.6,29.96,East,90,0.0,0.0,57,0.00,,---,5.20,VWS V12.08,2013-01-22 11:31:00,
2013-01-22 06:48:00,24.6,11.6,29.96,East,90,0.0,0.0,57,0.00,,---,5.20,VWS V12.08,2013-01-22 11:48:00,
2013-01-22 07:03:00,24.6,11.9,29.97,East,90,0.0,0.0,58,0.00,,---,5.20,VWS V12.08,2013-01-22 12:03:00,
2013-01-22 07:16:00,24.6,11.9,29.97,East,90,0.0,0.0,58,0.00,,---,5.20,VWS V12.08,2013-01-22 12:16:00,
2013-01-22 07:20:00,24.6,11.9,29.97,East,90,0.0,0.0,58,0.00,,---,5.20,VWS V12.08,2013-01-22 12:20:00,
2013-01-22 07:31:00,24.6,11.9,29.98,East,90,0.0,0.0,58,0.00,,---,5.20,VWS V12.08,2013-01-22 12:31:00,
2013-01-22 07:48:00,24.4,11.8,29.98,East,90,0.0,0.0,58,0.00,,---,5.20,VWS V12.08,2013-01-22 12:48:00,
2013-01-22 08:03:00,24.4,11.8,30.00,East,90,0.0,0.0,58,0.00,,---,5.20,VWS V12.08,2013-01-22 13:03:00,
2013-01-22 08:16:00,24.4,11.8,30.00,East,90,0.0,0.0,58,0.00,,---,5.20,VWS V12.08,2013-01-22 13:16:00,
2013-01-22 08:20:00,24.2,11.6,30.00,East,90,0.0,0.0,58,0.00,,---,5.20,VWS V12.08,2013-01-22 13:20:00,
2013-01-22 08:46:00,23.9,11.3,30.00,East,90,0.0,0.0,58,0.00,,---,5.20,VWS V12.08,2013-01-22 13:46:00,
2013-01-22 09:01:00,23.9,11.3,30.00,East,90,0.0,0.0,58,0.00,,---,5.20,VWS V12.08,2013-01-22 14:01:00,
2013-01-22 09:16:00,24.4,11.4,30.02,East,90,0.0,0.0,57,0.00,,---,5.20,VWS V12.08,2013-01-22 14:16:00,
2013-01-22 09:20:00,24.4,11.4,30.02,East,90,0.0,0.0,57,0.00,,---,5.20,VWS V12.08,2013-01-22 14:20:00,
2013-01-22 09:46:00,25.1,11.6,30.02,East,90,0.0,0.0,56,0.00,,---,5.20,VWS V12.08,2013-01-22 14:46:00,
2013-01-22 10:02:00,25.7,11.8,30.03,East,90,0.0,0.0,55,0.00,,---,5.20,VWS V12.08,2013-01-22 15:02:00,
2013-01-22 10:16:00,26.4,11.6,30.04,East,90,0.0,0.0,53,0.00,,---,5.20,VWS V12.08,2013-01-22 15:16:00,
2013-01-22 10:20:00,26.4,11.6,30.04,East,90,0.0,0.0,53,0.00,,---,5.20,VWS V12.08,2013-01-22 15:20:00,
2013-01-22 10:31:00,26.4,11.2,30.05,East,90,0.0,0.0,52,0.00,,---,5.20,VWS V12.08,2013-01-22 15:31:00,
2013-01-22 10:46:00,26.9,11.6,30.05,East,90,0.0,0.0,52,0.00,,---,5.20,VWS V12.08,2013-01-22 15:46:00,
2013-01-22 11:01:00,27.6,11.9,30.04,East,90,0.0,0.0,51,0.00,,---,5.20,VWS V12.08,2013-01-22 16:01:00,
2013-01-22 11:16:00,28.4,12.6,30.05,East,90,0.0,0.0,51,0.00,,---,5.20,VWS V12.08,2013-01-22 16:16:00,
2013-01-22 11:31:00,29.3,13.0,30.05,East,90,0.0,0.0,50,0.00,,---,5.20,VWS V12.08,2013-01-22 16:31:00,
2013-01-22 11:46:00,29.8,13.4,30.05,East,90,0.0,0.0,50,0.00,,---,5.20,VWS V12.08,2013-01-22 16:46:00,
2013-01-22 12:01:00,30.7,14.3,30.04,East,90,0.0,0.0,50,0.00,,---,5.20,VWS V12.08,2013-01-22 17:01:00,
2013-01-22 12:16:00,31.1,13.7,30.03,East,90,0.0,0.0,48,0.00,,---,5.20,VWS V12.08,2013-01-22 17:16:00,
2013-01-22 12:20:00,30.9,13.5,30.03,East,90,0.0,0.0,48,0.00,,---,5.20,VWS V12.08,2013-01-22 17:20:00,
2013-01-22 12:33:00,31.1,12.8,30.02,East,90,0.0,0.0,46,0.00,,---,5.20,VWS V12.08,2013-01-22 17:33:00,
2013-01-22 12:46:00,31.2,12.8,30.01,East,90,0.0,0.0,46,0.00,,---,5.20,VWS V12.08,2013-01-22 17:46:00,
2013-01-22 13:02:00,32.3,13.9,30.00,East,90,0.0,0.0,46,0.00,,---,5.20,VWS V12.08,2013-01-22 18:02:00,
2013-01-22 13:20:00,32.3,13.4,30.00,East,90,0.0,0.0,45,0.00,,---,5.20,VWS V12.08,2013-01-22 18:20:00,
2013-01-22 13:31:00,32.9,13.4,29.99,East,90,0.0,0.0,44,0.00,,---,5.20,VWS V12.08,2013-01-22 18:31:00,
2013-01-22 13:48:00,33.0,13.5,29.98,East,90,0.0,0.0,44,0.00,,---,5.20,VWS V12.08,2013-01-22 18:48:00,
2013-01-22 14:08:00,34.1,14.5,29.98,East,90,0.0,0.0,44,0.00,,---,5.20,VWS V12.08,2013-01-22 19:08:00,
2013-01-22 14:26:00,33.9,13.8,29.98,ESE,112,0.0,0.0,43,0.00,,---,5.20,VWS V12.08,2013-01-22 19:26:00,
2013-01-22 14:31:00,34.3,14.1,29.98,ESE,112,0.0,0.0,43,0.00,,---,5.20,VWS V12.08,2013-01-22 19:31:00,
2013-01-22 14:48:00,34.3,14.1,29.98,ESE,112,0.0,0.0,43,0.00,,---,5.20,VWS V12.08,2013-01-22 19:48:00,
2013-01-22 15:03:00,35.2,15.0,29.99,ESE,112,0.0,0.0,43,0.00,,---,5.20,VWS V12.08,2013-01-22 20:03:00,
2013-01-22 15:16:00,35.4,15.1,29.99,East,90,0.0,0.0,43,0.00,,---,5.20,VWS V12.08,2013-01-22 20:16:00,
2013-01-22 15:20:00,35.2,15.0,29.99,East,90,0.0,0.0,43,0.00,,---,5.20,VWS V12.08,2013-01-22 20:20:00,
2013-01-22 15:33:00,34.8,14.1,29.99,East,90,0.0,0.0,42,0.00,,---,5.20,VWS V12.08,2013-01-22 20:33:00,
2013-01-22 15:40:00,34.5,14.3,29.99,East,90,0.0,0.0,43,0.00,,---,5.20,VWS V12.08,2013-01-22 20:40:00,
2013-01-22 15:53:00,34.7,14.5,29.99,East,90,0.0,0.0,43,0.00,,---,5.20,VWS V12.08,2013-01-22 20:53:00,
2013-01-22 16:00:00,34.5,14.3,29.99,East,90,0.0,0.0,43,0.00,,---,5.20,VWS V12.08,2013-01-22 21:00:00,
2013-01-22 16:10:00,34.5,14.3,29.99,East,90,0.0,0.0,43,0.00,,---,5.20,VWS V12.08,2013-01-22 21:10:00,
2013-01-22 16:16:00,34.5,14.3,29.99,East,90,0.0,0.0,43,0.00,,---,5.20,VWS V12.08,2013-01-22 21:16:00,
2013-01-22 16:20:00,34.5,14.3,29.99,East,90,0.0,0.0,43,0.00,,---,5.20,VWS V12.08,2013-01-22 21:20:00,
2013-01-22 16:31:00,34.3,14.1,30.00,NE,45,0.0,0.0,43,0.00,,---,5.20,VWS V12.08,2013-01-22 21:31:00,
2013-01-22 16:46:00,34.3,14.1,30.00,NE,45,0.0,0.0,43,0.00,,---,5.20,VWS V12.08,2013-01-22 21:46:00,
2013-01-22 17:02:00,33.6,14.0,30.00,NE,45,0.0,0.0,44,0.00,,---,5.20,VWS V12.08,2013-01-22 22:02:00,
2013-01-22 17:16:00,33.4,13.9,30.00,NE,45,0.0,0.0,44,0.00,,---,5.20,VWS V12.08,2013-01-22 22:16:00,
2013-01-22 17:20:00,33.0,13.5,30.00,NE,45,0.0,0.0,44,0.00,,---,5.20,VWS V12.08,2013-01-22 22:20:00,
2013-01-22 17:33:00,32.5,13.0,30.00,NE,45,0.0,0.0,44,0.00,,---,5.20,VWS V12.08,2013-01-22 22:33:00,
2013-01-22 17:46:00,32.3,12.8,30.00,NE,45,0.0,0.0,44,0.00,,---,5.20,VWS V12.08,2013-01-22 22:46:00,
2013-01-22 18:02:00,31.6,12.7,30.01,NE,45,0.0,0.0,45,0.00,,---,5.20,VWS V12.08,2013-01-22 23:02:00,
2013-01-22 18:16:00,31.2,12.4,30.01,NE,45,0.0,0.0,45,0.00,,---,5.20,VWS V12.08,2013-01-22 23:16:00,
2013-01-22 18:31:00,30.9,12.6,30.01,NE,45,0.0,0.0,46,0.00,,---,5.20,VWS V12.08,2013-01-22 23:31:00,
2013-01-22 18:46:00,30.9,12.6,30.01,NE,45,0.0,0.0,46,0.00,,---,5.20,VWS V12.08,2013-01-22 23:46:00,
2013-01-22 19:01:00,30.7,12.9,30.02,NE,45,0.0,0.0,47,0.00,,---,5.20,VWS V12.08,2013-01-23 00:01:00,
2013-01-22 19:20:00,30.3,13.0,30.01,NE,45,0.0,0.0,48,0.00,,---,5.20,VWS V12.08,2013-01-23 00:20:00,
2013-01-22 19:31:00,30.3,13.0,30.02,NE,45,0.0,0.0,48,0.00,,---,5.20,VWS V12.08,2013-01-23 00:31:00,
2013-01-22 19:46:00,30.5,13.6,30.03,NE,45,0.0,0.0,49,0.00,,---,5.20,VWS V12.08,2013-01-23 00:46:00,
2013-01-22 20:01:00,30.2,12.9,30.02,NE,45,0.0,0.0,48,0.00,,---,5.20,VWS V12.08,2013-01-23 01:01:00,
2013-01-22 20:26:00,30.0,13.2,30.03,NE,45,0.0,0.0,49,0.00,,---,5.20,VWS V12.08,2013-01-23 01:26:00,
2013-01-22 20:31:00,30.0,13.2,30.03,NE,45,0.0,0.0,49,0.00,,---,5.20,VWS V12.08,2013-01-23 01:31:00,
2013-01-22 20:48:00,30.0,13.2,30.03,NE,45,0.0,0.0,49,0.00,,---,5.20,VWS V12.08,2013-01-23 01:48:00,
2013-01-22 21:02:00,29.8,13.0,30.03,NE,45,0.0,0.0,49,0.00,,---,5.20,VWS V12.08,2013-01-23 02:02:00,
2013-01-22 21:18:00,30.0,13.6,30.02,NE,45,0.0,0.0,50,0.00,,---,5.20,VWS V12.08,2013-01-23 02:18:00,
2013-01-22 21:20:00,30.0,13.6,30.03,NE,45,0.0,0.0,50,0.00,,---,5.20,VWS V12.08,2013-01-23 02:20:00,
2013-01-22 21:38:00,30.0,13.6,30.02,NE,45,0.0,0.0,50,0.00,,---,5.20,VWS V12.08,2013-01-23 02:38:00,
2013-01-22 21:40:00,30.0,13.6,30.02,NE,45,0.0,0.0,50,0.00,,---,5.20,VWS V12.08,2013-01-23 02:40:00,
2013-01-22 21:56:00,30.0,13.6,30.01,NE,45,0.0,0.0,50,0.00,,---,5.20,VWS V12.08,2013-01-23 02:56:00,
2013-01-22 22:01:00,30.0,13.6,30.01,NE,45,0.0,0.0,50,0.00,,---,5.20,VWS V12.08,2013-01-23 03:01:00,
2013-01-22 22:18:00,29.8,13.4,30.01,NE,45,0.0,0.0,50,0.00,,---,5.20,VWS V12.08,2013-01-23 03:18:00,
2013-01-22 22:20:00,30.0,14.1,30.01,NE,45,0.0,0.0,51,0.00,,---,5.20,VWS V12.08,2013-01-23 03:20:00,
2013-01-22 22:38:00,30.0,14.1,30.01,NE,45,0.0,0.0,51,0.00,,---,5.20,VWS V12.08,2013-01-23 03:38:00,
2013-01-22 22:40:00,30.0,14.1,30.01,NE,45,0.0,0.0,51,0.00,,---,5.20,VWS V12.08,2013-01-23 03:40:00,
2013-01-22 22:53:00,30.0,14.1,30.01,NE,45,0.0,0.0,51,0.00,,---,5.20,VWS V12.08,2013-01-23 03:53:00,
2013-01-22 23:00:00,30.0,14.1,30.01,NE,45,0.0,0.0,51,0.00,,---,5.20,VWS V12.08,2013-01-23 04:00:00,
2013-01-22 23:11:00,30.0,14.1,30.01,NE,45,0.0,0.0,51,0.00,,---,5.20,VWS V12.08,2013-01-23 04:11:00,
2013-01-22 23:20:00,30.0,14.5,30.01,NE,45,0.0,0.0,52,0.00,,---,5.20,VWS V12.08,2013-01-23 04:20:00,
2013-01-22 23:33:00,30.0,14.5,30.01,NE,45,0.0,0.0,52,0.00,,---,5.20,VWS V12.08,2013-01-23 04:33:00,
2013-01-22 23:40:00,30.0,14.5,30.01,NE,45,0.0,0.0,52,0.00,,---,5.20,VWS V12.08,2013-01-23 04:40:00,
2013-01-22 23:53:00,30.0,15.0,30.01,NE,45,0.0,0.0,53,0.00,,---,5.20,VWS V12.08,2013-01-23 04:53:00,